TimeCDT,TemperatureF,Dew PointF,Humidity,Sea Level PressureIn,VisibilityMPH,Wind Direction,Wind SpeedMPH,Gust SpeedMPH,PrecipitationIn,Events,Conditions,WindDirDegrees,DateUTC
12:53 AM,19.9,14.0,78,30.27,10.0,Calm,Calm,-,N/A,,Clear,0,2013-04-24 05:53:00
1:53 AM,16.0,12.9,88,30.28,10.0,NW,3.5,-,N/A,,Clear,320,2013-04-24 06:53:00
2:53 AM,17.1,12.9,84,30.25,10.0,Calm,Calm,-,N/A,,Clear,0,2013-04-24 07:53:00
3:53 AM,18.0,12.9,81,30.23,10.0,Calm,Calm,-,N/A,,Clear,0,2013-04-24 08:53:00
4:53 AM,16.0,12.9,88,30.22,10.0,Calm,Calm,-,N/A,,Clear,0,2013-04-24 09:53:00
5:53 AM,16.0,12.9,88,30.20,10.0,Calm,Calm,-,N/A,,Clear,0,2013-04-24 10:53:00
6:53 AM,16.0,12.0,84,30.20,10.0,NW,3.5,-,N/A,,Clear,310,2013-04-24 11:53:00
7:53 AM,21.9,17.1,82,30.19,10.0,Calm,Calm,-,N/A,,Clear,0,2013-04-24 12:53:00
8:53 AM,30.0,24.1,79,30.22,10.0,West,6.9,-,N/A,,Clear,280,2013-04-24 13:53:00
9:53 AM,39.9,24.1,53,30.21,10.0,West,9.2,-,N/A,,Clear,280,2013-04-24 14:53:00
10:53 AM,48.0,18.0,30,30.18,10.0,West,15.0,21.9,N/A,,Clear,280,2013-04-24 15:53:00
11:53 AM,52.0,15.1,23,30.18,10.0,WNW,16.1,24.2,N/A,,Clear,290,2013-04-24 16:53:00
12:53 PM,55.0,19.0,24,30.16,10.0,West,17.3,24.2,N/A,,Clear,280,2013-04-24 17:53:00
1:53 PM,55.9,18.0,23,30.16,10.0,WNW,24.2,31.1,N/A,,Scattered Clouds,300,2013-04-24 18:53:00
2:53 PM,55.0,21.0,27,30.17,10.0,WNW,23.0,38.0,N/A,,Mostly Cloudy,300,2013-04-24 19:53:00
3:53 PM,55.0,23.0,29,30.16,10.0,WNW,20.7,27.6,N/A,,Mostly Cloudy,300,2013-04-24 20:53:00
4:53 PM,54.0,21.0,28,30.18,10.0,WNW,27.6,35.7,N/A,,Mostly Cloudy,300,2013-04-24 21:53:00
5:53 PM,55.0,19.0,24,30.18,10.0,NW,26.5,41.4,N/A,,Partly Cloudy,310,2013-04-24 22:53:00
6:53 PM,52.0,19.0,27,30.20,10.0,NW,19.6,34.5,N/A,,Clear,320,2013-04-24 23:53:00
7:53 PM,48.0,25.0,41,30.20,10.0,North,15.0,-,N/A,,Clear,10,2013-04-25 00:53:00
8:53 PM,39.0,28.0,65,30.23,10.0,Calm,Calm,-,N/A,,Clear,0,2013-04-25 01:53:00
9:53 PM,32.0,26.1,79,30.25,10.0,Calm,Calm,-,N/A,,Clear,0,2013-04-25 02:53:00
10:53 PM,28.0,24.1,85,30.26,10.0,ESE,3.5,-,N/A,,Clear,120,2013-04-25 03:53:00
11:53 PM,28.0,24.1,85,30.25,10.0,Calm,Calm,-,N/A,,Clear,0,2013-04-25 04:53:00